Powrót do katalogu

STARLINK-34918

AktywnyŁącznośćVLEO
NORAD 65331·PAYLOAD·🇺🇸 United States

Wystrzelony Aug 27, 2025 z Cape Canaveral Space Force Station

Loading…

Następne Przeloty (najbliższe 24 godziny)

TLE

ŚwieżeSource: CelesTrak SupGP

Epoka: Sep 14, 2026, 21:27 UTC

1 65331C 25189J   26257.89423611  .00042027  00000+0  13520-2 0  2573
2 65331  53.1594  46.2830 0001218  80.8052  64.8051 15.31668980    17

Śledź STARLINK-34918 w czasie rzeczywistym z AllMySat

Download on the App Store